Regional Weather Roundup
Issued by NWS

Home | Current Version | Previous Version | Text Only | Print | Product List | Glossary On
Versions: 1 2 3 4 5 6 7 8 9 10 11 12 13 14 15 16 17 18 19 20 21 22 23 24 25 26 27 28 29 30 31 32 33 34 35 36 37 38 39 40 41 42 43 44 45 46 47 48 49 50
000
ASUS45 KBOU 271707
RWRCO

WEATHER ROUNDUP FOR COLORADO
NATIONAL WEATHER SERVICE DENVER/BOULDER CO
1000 AM MST TUE JAN 27 2015

NOTE: "FAIR" INDICATES FEW OR NO CLOUDS BELOW 12000 FEET WITH NO
SIGNIFICANT WEATHER AND/OR OBSTRUCTIONS TO VISIBILITY.

COZ001>005-013-030-031-271800-
...NORTHWEST COLORADO...

CITY           SKY/WX    TMP DP  RH WIND       PRES   REMARKS
CRAIG          MOSUNNY   24  21  88 CALM      30.33F
HAYDEN         MOSUNNY   32  19  59 E13       30.32F WCI  22
MEEKER         PTSUNNY   25  18  74 CALM      30.32F
MOUNT WERNER   NOT AVBL
STEAMBOAT SPGS MOSUNNY   25  18  74 CALM      30.35S
WALDEN         SUNNY     25  18  74 CALM      30.36F
$$

COZ006>008-011-271800-
...WEST CENTRAL VALLEYS...

CITY           SKY/WX    TMP DP  RH WIND       PRES   REMARKS
GRAND JUNCTION MOSUNNY   41  28  60 E6        30.31S
MONTROSE       MOSUNNY   43  26  51 CALM      30.34F
EAGLE          MOSUNNY   30  28  93 CALM      30.45F
RIFLE          PTSUNNY   35  26  69 N3        30.35F
DELTA          NOT AVBL
NUCLA          MOSUNNY   39  28  65 CALM      30.38S
$$

COZ017>023-064>068-271800-
...SOUTHWEST COLORADO...

CITY           SKY/WX    TMP DP  RH WIND       PRES   REMARKS
DURANGO        SUNNY     39  25  57 E7        30.38S
CORTEZ         PTSUNNY   47  27  45 N3        30.36S
PAGOSA SPRINGS SUNNY     41  21  44 CALM      30.41S
TELLURIDE      SUNNY     46  16  30 SE13G20   30.41F
WOLF CREEK PAS NOT AVBL
$$

COZ009-010-012-014-032>034-037-058>063-271800-
...CENTRAL COLORADO...

CITY           SKY/WX    TMP DP  RH WIND       PRES   REMARKS
ASPEN          MOSUNNY   35  21  56 CALM      30.36F
BUENA VISTA    SUNNY     38  20  48 CALM      30.38S
COPPER MTN     MOSUNNY   41   5  22 S9        30.51S
BERTHOUD PASS  FAIR      30  27  86 NW12      30.52S WCI  21
COTTONWOOD PAS SUNNY     45  10  24 SE5       30.42S
GUNNISON       MOSUNNY    3  -4  72 CALM      30.50S
KREMMLING      LGT SNOW N/A N/A N/A CALM      30.47F VSB 3/4
LEADVILLE      MOSUNNY   34  11  38 CALM      30.41F
MONARCH PASS   MOSUNNY   34  10  37 SW23G30   30.60S WCI  22
SALIDA         SUNNY     42  18  38 N10       30.44S
SUNLIGHT       PTSUNNY   39  19  45 CALM        N/A
WILKERSON PASS PTSUNNY   36  10  35 SW8       30.48S
$$

COZ069>075-271800-
...SAN LUIS VALLEY/SANGRE DE CRISTO MOUNTAINS...

CITY           SKY/WX    TMP DP  RH WIND       PRES   REMARKS
ALAMOSA        PTSUNNY   34  20  56 N3        30.42S
LA VETA PASS   NOT AVBL
SAGUACHE       MOSUNNY   32  21  64 CALM      30.43S
$$

COZ035-036-038>040-271800-
...NORTHERN COLORADO FRONT RANGE...

CITY           SKY/WX    TMP DP  RH WIND       PRES   REMARKS
DENVER INTL AP PTSUNNY   60  23  24 SW14      30.15S
DMNS CITY PARK   N/A     60  17  19 S9        30.15S
AURORA         PTSUNNY   58  22  25 SW15      30.16F
FRONT RANGE AP MOSUNNY   63  27  25 SW9       30.16
ERIE MUNI ARPT SUNNY     54  22  29 CALM      30.14F
BOULDER MUN AP SUNNY     57  25  28 CALM      30.14F
CENTENNIAL     PTSUNNY   62  21  20 S6        30.18F
BROOMFIELD     MOSUNNY   57  21  24 CALM      30.16F
FORT COLLINS   SUNNY     52  30  43 CALM      30.15S
LONGMONT       SUNNY     57  26  30 S5        30.15S
$$

COZ041-046-047-076>085-087-088-271800-
...PIKES PEAK/PALMER DIVIDE AND SOUTHERN FOOTHILLS...

CITY           SKY/WX    TMP DP  RH WIND       PRES   REMARKS
COLO. SPRINGS  PTSUNNY   61  24  24 W3        30.23S
A. F. ACADEMY  SUNNY     58  21  24 SW2       30.23S
ELLICOTT       SUNNY    N/A N/A N/A SW7       30.22S
FALCON         SUNNY     62  13  15 SW3       30.26S
FORT CARSON    MOSUNNY   57  23  26 N3        30.20S
LIMON          SUNNY     67  17  14 SW15G22   30.17F
MONUMENT HILL  SUNNY     57  23  26 SW5       30.25S
TRINIDAD       MOSUNNY   57  29  34 SW3       30.24S
$$

COZ042>045-048>051-090-091-271800-
...NORTHEAST COLORADO...

CITY           SKY/WX    TMP DP  RH WIND       PRES   REMARKS
GREELEY ARPT   SUNNY     41  28  60 W3        30.13S
AKRON          SUNNY     55  28  35 W9        30.13S
BURLINGTON     SUNNY     64  31  28 SW6       30.14R
WRAY           SUNNY     60  30  31 W13       30.09F
STERLING       SUNNY     46  36  66 SW7       30.12S
HOLYOKE        SUNNY     61  30  31 W3        30.10R
FORT MORGAN    SUNNY     53  26  35 W8        30.13F
$$

COZ086-089-092>099-271800-
...SOUTHEAST COLORADO...

CITY           SKY/WX    TMP DP  RH WIND       PRES   REMARKS
PUEBLO         MOSUNNY   51  28  41 W8        30.19F
LA JUNTA       SUNNY     54  30  40 SW6       30.18F
LAMAR          SUNNY     50  33  52 NW8       30.17R
SPRINGFIELD      N/A     66  25  21 SW9       30.18F
$$



USA.gov is the U.S. government's official web portal to all federal, state and local government web resources and services.